Time,TemperatureF,DewpointF,PressureIn,WindDirection,WindDirectionDegrees,WindSpeedMPH,WindSpeedGustMPH,Humidity,HourlyPrecipIn,Conditions,Clouds,dailyrainin,SolarRadiationWatts/m^2,SoftwareType,DateUTC
2013-07-25 00:02:00,62.0,55.0,-100.00,SSE,163,1.0,4.0,79,0.00,,,0.00,0.000000,,2013-07-25 05:02:00,
2013-07-25 00:32:00,62.0,56.0,-100.00,SSE,162,1.0,5.0,81,0.00,,,0.00,0.000000,,2013-07-25 05:32:00,
2013-07-25 00:43:00,62.0,56.0,-100.00,SSE,162,1.0,5.0,81,0.00,,,0.00,0.000000,,2013-07-25 05:43:00,
2013-07-25 00:52:00,62.0,56.0,-100.00,SSE,162,1.0,5.0,81,0.00,,,0.00,0.000000,,2013-07-25 05:52:00,
2013-07-25 01:02:00,62.0,56.0,-100.00,SSE,162,1.0,5.0,81,0.00,,,0.00,0.000000,,2013-07-25 06:02:00,
2013-07-25 01:32:00,63.0,56.0,-100.00,SSW,192,3.0,8.0,79,0.00,,,0.00,0.000000,,2013-07-25 06:32:00,
2013-07-25 01:42:00,63.0,56.0,-100.00,SSW,192,3.0,8.0,79,0.00,,,0.00,0.000000,,2013-07-25 06:42:00,
2013-07-25 01:52:00,63.0,56.0,-100.00,SSW,192,3.0,8.0,79,0.00,,,0.00,0.000000,,2013-07-25 06:52:00,
2013-07-25 02:02:00,63.0,56.0,-100.00,SSW,192,3.0,8.0,79,0.00,,,0.00,0.000000,,2013-07-25 07:02:00,
2013-07-25 02:33:00,60.0,56.0,-100.00,ESE,115,1.0,7.0,87,0.00,,,0.00,0.000000,,2013-07-25 07:33:00,
2013-07-25 02:43:00,60.0,56.0,-100.00,ESE,115,1.0,7.0,87,0.00,,,0.00,0.000000,,2013-07-25 07:43:00,
2013-07-25 02:53:00,60.0,56.0,-100.00,ESE,115,1.0,7.0,87,0.00,,,0.00,0.000000,,2013-07-25 07:53:00,
2013-07-25 03:02:00,60.0,56.0,-100.00,ESE,115,1.0,7.0,87,0.00,,,0.00,0.000000,,2013-07-25 08:02:00,
2013-07-25 03:32:00,62.0,58.0,-100.00,South,184,3.0,8.0,86,0.00,,,0.00,0.000000,,2013-07-25 08:32:00,
2013-07-25 03:44:00,62.0,58.0,-100.00,South,184,3.0,8.0,86,0.00,,,0.00,0.000000,,2013-07-25 08:44:00,
2013-07-25 03:52:00,62.0,58.0,-100.00,South,184,3.0,8.0,86,0.00,,,0.00,0.000000,,2013-07-25 08:52:00,
2013-07-25 04:02:00,62.0,58.0,-100.00,South,184,3.0,8.0,86,0.00,,,0.00,0.000000,,2013-07-25 09:02:00,
2013-07-25 04:33:00,63.0,58.0,-100.00,South,176,1.0,8.0,83,0.00,,,0.00,0.000000,,2013-07-25 09:33:00,
2013-07-25 04:43:00,63.0,58.0,-100.00,South,176,1.0,8.0,83,0.00,,,0.00,0.000000,,2013-07-25 09:43:00,
2013-07-25 04:53:00,63.0,58.0,-100.00,South,176,1.0,8.0,83,0.00,,,0.00,0.000000,,2013-07-25 09:53:00,
2013-07-25 05:02:00,63.0,58.0,-100.00,South,176,1.0,8.0,83,0.00,,,0.00,0.000000,,2013-07-25 10:02:00,
2013-07-25 05:32:00,59.0,57.0,-100.00,SE,140,0.0,3.0,92,0.00,,,0.00,0.000000,,2013-07-25 10:32:00,
2013-07-25 05:43:00,59.0,57.0,-100.00,SE,140,0.0,3.0,92,0.00,,,0.00,0.000000,,2013-07-25 10:43:00,
2013-07-25 05:53:00,59.0,57.0,-100.00,SE,140,0.0,3.0,92,0.00,,,0.00,0.000000,,2013-07-25 10:53:00,
2013-07-25 06:02:00,59.0,57.0,-100.00,SE,140,0.0,3.0,92,0.00,,,0.00,0.000000,,2013-07-25 11:02:00,
2013-07-25 06:32:00,55.0,54.0,-100.00,ESE,103,0.0,1.0,95,0.00,,,0.00,2.000000,,2013-07-25 11:32:00,
2013-07-25 06:43:00,55.0,54.0,-100.00,ESE,103,0.0,1.0,95,0.00,,,0.00,2.000000,,2013-07-25 11:43:00,
2013-07-25 06:52:00,55.0,54.0,-100.00,ESE,103,0.0,1.0,95,0.00,,,0.00,2.000000,,2013-07-25 11:52:00,
2013-07-25 07:02:00,55.0,54.0,-100.00,ESE,103,0.0,1.0,95,0.00,,,0.00,2.000000,,2013-07-25 12:02:00,
2013-07-25 07:32:00,61.0,58.0,-100.00,ESE,103,0.0,0.0,89,0.00,,,0.00,64.000000,,2013-07-25 12:32:00,
2013-07-25 07:45:00,61.0,58.0,-100.00,ESE,103,0.0,0.0,89,0.00,,,0.00,64.000000,,2013-07-25 12:45:00,
2013-07-25 07:53:00,61.0,58.0,-100.00,ESE,103,0.0,0.0,89,0.00,,,0.00,64.000000,,2013-07-25 12:53:00,
2013-07-25 08:02:00,61.0,58.0,-100.00,ESE,103,0.0,0.0,89,0.00,,,0.00,64.000000,,2013-07-25 13:02:00,
2013-07-25 08:33:00,68.0,60.0,-100.00,SSW,205,3.0,8.0,76,0.00,,,0.00,202.000000,,2013-07-25 13:33:00,
2013-07-25 08:43:00,68.0,60.0,-100.00,SSW,205,3.0,8.0,76,0.00,,,0.00,202.000000,,2013-07-25 13:43:00,
2013-07-25 08:53:00,68.0,60.0,-100.00,SSW,205,3.0,8.0,76,0.00,,,0.00,202.000000,,2013-07-25 13:53:00,
2013-07-25 09:02:00,68.0,60.0,-100.00,SSW,205,3.0,8.0,76,0.00,,,0.00,202.000000,,2013-07-25 14:02:00,
2013-07-25 09:33:00,71.0,61.0,-100.00,SW,223,4.0,7.0,70,0.00,,,0.00,327.000000,,2013-07-25 14:33:00,
2013-07-25 09:43:00,71.0,61.0,-100.00,SW,223,4.0,7.0,70,0.00,,,0.00,327.000000,,2013-07-25 14:43:00,
2013-07-25 09:53:00,71.0,61.0,-100.00,SW,223,4.0,7.0,70,0.00,,,0.00,327.000000,,2013-07-25 14:53:00,
2013-07-25 10:02:00,71.0,61.0,-100.00,SW,223,4.0,7.0,70,0.00,,,0.00,327.000000,,2013-07-25 15:02:00,
2013-07-25 10:32:00,73.0,61.0,-100.00,WSW,239,3.0,6.0,66,0.00,,,0.00,350.000000,,2013-07-25 15:32:00,
2013-07-25 10:44:00,73.0,61.0,-100.00,WSW,239,3.0,6.0,66,0.00,,,0.00,350.000000,,2013-07-25 15:44:00,
2013-07-25 10:53:00,73.0,61.0,-100.00,WSW,239,3.0,6.0,66,0.00,,,0.00,350.000000,,2013-07-25 15:53:00,
2013-07-25 11:02:00,73.0,61.0,-100.00,WSW,239,3.0,6.0,66,0.00,,,0.00,350.000000,,2013-07-25 16:02:00,
2013-07-25 11:33:00,77.0,61.0,-100.00,WSW,241,3.0,8.0,57,0.00,,,0.00,592.000000,,2013-07-25 16:33:00,
2013-07-25 11:45:00,77.0,61.0,-100.00,WSW,241,3.0,8.0,57,0.00,,,0.00,592.000000,,2013-07-25 16:45:00,
2013-07-25 11:53:00,77.0,61.0,-100.00,WSW,241,3.0,8.0,57,0.00,,,0.00,592.000000,,2013-07-25 16:53:00,
2013-07-25 12:03:00,77.0,61.0,-100.00,WSW,241,3.0,8.0,57,0.00,,,0.00,592.000000,,2013-07-25 17:03:00,
2013-07-25 12:32:00,80.0,60.0,-100.00,West,263,4.0,9.0,50,0.00,,,0.00,632.000000,,2013-07-25 17:32:00,
2013-07-25 12:43:00,80.0,60.0,-100.00,West,263,4.0,9.0,50,0.00,,,0.00,632.000000,,2013-07-25 17:43:00,
2013-07-25 12:53:00,80.0,60.0,-100.00,West,263,4.0,9.0,50,0.00,,,0.00,632.000000,,2013-07-25 17:53:00,
2013-07-25 13:02:00,80.0,60.0,-100.00,West,263,4.0,9.0,50,0.00,,,0.00,632.000000,,2013-07-25 18:02:00,
2013-07-25 13:33:00,80.0,59.0,-100.00,SW,236,7.0,13.0,48,0.00,,,0.00,754.000000,,2013-07-25 18:33:00,
2013-07-25 13:43:00,80.0,59.0,-100.00,SW,236,7.0,13.0,48,0.00,,,0.00,754.000000,,2013-07-25 18:43:00,
2013-07-25 13:52:00,80.0,59.0,-100.00,SW,236,7.0,13.0,48,0.00,,,0.00,754.000000,,2013-07-25 18:52:00,
2013-07-25 14:02:00,80.0,59.0,-100.00,SW,236,7.0,13.0,48,0.00,,,0.00,754.000000,,2013-07-25 19:02:00,
2013-07-25 15:32:00,75.0,63.0,-100.00,WSW,237,6.0,16.0,66,-99.99,,,0.23,374.000000,,2013-07-25 20:32:00,
2013-07-25 15:43:00,75.0,63.0,-100.00,WSW,237,6.0,16.0,66,-99.99,,,0.23,374.000000,,2013-07-25 20:43:00,
2013-07-25 15:54:00,75.0,63.0,-100.00,WSW,237,6.0,16.0,66,-99.99,,,0.23,374.000000,,2013-07-25 20:54:00,
2013-07-25 16:03:00,75.0,63.0,-100.00,WSW,237,6.0,16.0,66,-99.99,,,0.23,374.000000,,2013-07-25 21:03:00,
2013-07-25 16:33:00,74.0,63.0,-100.00,West,268,3.0,12.0,69,0.00,,,0.23,173.000000,,2013-07-25 21:33:00,
2013-07-25 16:44:00,74.0,63.0,-100.00,West,268,3.0,12.0,69,0.00,,,0.23,173.000000,,2013-07-25 21:44:00,
2013-07-25 16:52:00,74.0,63.0,-100.00,West,268,3.0,12.0,69,0.00,,,0.23,173.000000,,2013-07-25 21:52:00,
2013-07-25 17:02:00,74.0,63.0,-100.00,West,268,3.0,12.0,69,0.00,,,0.23,173.000000,,2013-07-25 22:02:00,
2013-07-25 17:33:00,77.0,62.0,-100.00,SW,230,6.0,10.0,59,0.00,,,0.23,409.000000,,2013-07-25 22:33:00,
2013-07-25 17:43:00,77.0,62.0,-100.00,SW,230,6.0,10.0,59,0.00,,,0.23,409.000000,,2013-07-25 22:43:00,
2013-07-25 17:53:00,77.0,62.0,-100.00,SW,230,6.0,10.0,59,0.00,,,0.23,409.000000,,2013-07-25 22:53:00,
2013-07-25 18:02:00,77.0,62.0,-100.00,SW,230,6.0,10.0,59,0.00,,,0.23,409.000000,,2013-07-25 23:02:00,
2013-07-25 18:32:00,76.0,59.0,-100.00,WSW,240,5.0,14.0,55,0.00,,,0.23,432.000000,,2013-07-25 23:32:00,
2013-07-25 18:43:00,76.0,59.0,-100.00,WSW,240,5.0,14.0,55,0.00,,,0.23,432.000000,,2013-07-25 23:43:00,
2013-07-25 18:52:00,76.0,59.0,-100.00,WSW,240,5.0,14.0,55,0.00,,,0.23,432.000000,,2013-07-25 23:52:00,
2013-07-25 19:02:00,76.0,59.0,-100.00,WSW,240,5.0,14.0,55,0.00,,,0.23,432.000000,,2013-07-26 00:02:00,
2013-07-25 19:33:00,74.0,59.0,-100.00,WSW,244,3.0,12.0,60,0.00,,,0.23,202.000000,,2013-07-26 00:33:00,
2013-07-25 19:43:00,74.0,59.0,-100.00,WSW,244,3.0,12.0,60,0.00,,,0.23,202.000000,,2013-07-26 00:43:00,
2013-07-25 19:52:00,74.0,59.0,-100.00,WSW,244,3.0,12.0,60,0.00,,,0.23,202.000000,,2013-07-26 00:52:00,
2013-07-25 20:02:00,74.0,59.0,-100.00,WSW,244,3.0,12.0,60,0.00,,,0.23,202.000000,,2013-07-26 01:02:00,
2013-07-25 20:33:00,72.0,62.0,-100.00,SSW,209,0.0,7.0,71,0.00,,,0.23,76.000000,,2013-07-26 01:33:00,
2013-07-25 20:43:00,72.0,62.0,-100.00,SSW,209,0.0,7.0,71,0.00,,,0.23,76.000000,,2013-07-26 01:43:00,
2013-07-25 20:52:00,72.0,62.0,-100.00,SSW,209,0.0,7.0,71,0.00,,,0.23,76.000000,,2013-07-26 01:52:00,
2013-07-25 21:02:00,72.0,62.0,-100.00,SSW,209,0.0,7.0,71,0.00,,,0.23,76.000000,,2013-07-26 02:02:00,
2013-07-25 22:33:00,65.0,62.0,-100.00,NW,314,1.0,4.0,90,-99.99,,,0.24,0.000000,,2013-07-26 03:33:00,
2013-07-25 22:44:00,65.0,62.0,-100.00,NW,314,1.0,4.0,90,-99.99,,,0.24,0.000000,,2013-07-26 03:44:00,
2013-07-25 22:53:00,65.0,62.0,-100.00,NW,314,1.0,4.0,90,-99.99,,,0.24,0.000000,,2013-07-26 03:53:00,
2013-07-25 23:02:00,65.0,62.0,-100.00,NW,314,1.0,4.0,90,-99.99,,,0.24,0.000000,,2013-07-26 04:02:00,
2013-07-25 23:32:00,64.0,62.0,-100.00,SW,214,2.0,4.0,93,0.00,,,0.24,0.000000,,2013-07-26 04:32:00,
2013-07-25 23:43:00,64.0,62.0,-100.00,SW,214,2.0,4.0,93,0.00,,,0.24,0.000000,,2013-07-26 04:43:00,
2013-07-25 23:53:00,64.0,62.0,-100.00,SW,214,2.0,4.0,93,0.00,,,0.24,0.000000,,2013-07-26 04:53:00,